[[{"header":{"parameterUnit":"m.s-1","parameterCategory":1,"la1":30.2991,"la2":30.254,"lo1":-89.0895,"lo2":-89.0444,"dy":0.0017,"dx":0.0017,"nx":28,"ny":28,"refTime":"2024-08-19T03:00:00:Z","depth":0,"parameterNumber":2,"parameterNumberName":"U-component_of_WINDS"},"data":[0,0,0,0,0,0,0,0,0,0,0,0,0,0,0,0,0,0,0,0,0,0,0,0,0,0,0,0,0,0,0,0,0,0,0,0,0,0,0,0,0,0,0,0,0,0,0,0,0,0,0,0,0,0,0,0,0,0,0.5349,0.5348,0,0.5248,0.5247,0.5246,0.5212,0.5212,0.5213,0.5213,0.5106,0.5103,0.51,0,0,0,0,0,0,0,0,0,0,0,0,0,0.5509,0.5507,0.5349,0.5348,0.5346,0.5248,0.5247,0.5245,0.5212,0.5212,0.5213,0.5213,0.5107,0.5104,0.51,0,0,0,0,0,0,0,0,0,0,0,0,0,0.5427,0.5506,0.5349,0.5318,0.5314,0.5248,0.5247,0.5245,0.5212,0.5212,0.5213,0.5214,0.5109,0.5104,0.5099,0.5056,0,0,0.5084,0.5082,0,0,0,0,0,0,0,0,0.5432,0.5421,0.5324,0.532,0.5315,0.5243,0.5264,0.5182,0.5212,0.525,0.5213,0.5214,0.5151,0.5143,0.5122,0.5051,0.5047,0.5084,0.5081,0.5079,0.5077,0,0,0,0,0,0,0,0.5438,0.5425,0.5309,0.5322,0.5317,0.5308,0.5297,0.5248,0.5198,0.5247,0.5244,0.5233,0.5149,0.5127,0.512,0.5045,0.5084,0.508,0.5077,0.5075,0.4933,0.4933,0,0,0,0,0,0,0.5449,0.543,0.5312,0.5306,0.5377,0.5304,0.5292,0.5266,0.5199,0.5189,0.5233,0.5232,0.5135,0.5125,0.5116,0.5061,0.5079,0.5074,0.5071,0.4934,0.4933,0.4932,0,0,0,0,0,0,0.5453,0.5439,0.5316,0.5367,0.5351,0.5301,0.5272,0.5263,0.5241,0.5188,0.5178,0.522,0.5135,0.5123,0.5071,0.5057,0.5072,0.5068,0.4935,0.4934,0.4933,0.4951,0,0,0,0,0,0,0.5457,0.544,0.5424,0.5367,0.5348,0.5274,0.5271,0.5261,0.5234,0.5232,0.5173,0.5164,0.5135,0.5079,0.5067,0.505,0.5064,0.4936,0.4935,0.4933,0.4951,0.495,0.495,0,0,0,0,0,0.5463,0.5432,0.5423,0.5409,0.5327,0.5274,0.5263,0.5231,0.5233,0.5215,0.5181,0.5166,0.5061,0.5074,0.506,0.5042,0.4937,0.4935,0.4933,0.4952,0.4951,0.495,0,0,0,0,0,0,0.5487,0.5424,0.5414,0.5364,0.5325,0.5268,0.5245,0.523,0.5189,0.5189,0.5149,0.5136,0.5088,0.506,0.5076,0.4997,0.4998,0.4993,0.5017,0.5015,0.5014,0.5022,0.506,0,0,0,0,0,0.5487,0.545,0.5397,0.5358,0.5339,0.5296,0.5271,0.525,0.5207,0.519,0.5152,0.511,0.5067,0.504,0.4997,0.4947,0.4934,0.4928,0.4927,0.4927,0.4923,0.4894,0.4891,0.4926,0.4926,0.4926,0,0,0.5486,0.5447,0.5426,0.5362,0.5329,0.529,0.5282,0.5241,0.5212,0.5183,0.5133,0.5104,0.5054,0.5004,0.4979,0.4978,0.491,0.4924,0.4924,0.492,0.4892,0.4888,0.4885,0.4925,0.4925,0.4925,0,0,0.5464,0.5431,0.5395,0.5362,0.5313,0.5285,0.5276,0.5222,0.5202,0.5151,0.5129,0.5093,0.5021,0.4986,0.4959,0.4925,0.491,0.4913,0.4908,0.488,0.4877,0.4874,0.4862,0.4858,0.4909,0.4909,0.4909,0,0.5468,0.541,0.5378,0.5339,0.5311,0.5285,0.5248,0.5217,0.5156,0.5137,0.5138,0.5047,0.5011,0.4952,0.4944,0.4923,0.4912,0.4919,0.488,0.4877,0.4874,0.4862,0.4857,0.491,0.491,0.4909,0.4909,0,0.5417,0.5377,0.5354,0.5297,0.5267,0.5229,0.519,0.5163,0.5145,0.5117,0.5065,0.5022,0.4971,0.4956,0.4937,0.4894,0.4895,0.4888,0.4889,0.4872,0.486,0.4855,0.4911,0.491,0.491,0.491,0,0,0.5407,0.5334,0.5325,0.5299,0.5243,0.5211,0.5172,0.5123,0.5101,0.5059,0.5025,0.4965,0.4959,0.4928,0.4905,0.4881,0.4857,0.4877,0.4876,0.4875,0.4806,0.4811,0.4806,0.4846,0.4845,0.4845,0.481,0,0.5377,0.5307,0.5277,0.522,0.5182,0.5157,0.5123,0.5084,0.5057,0.502,0.4989,0.4947,0.4942,0.4924,0.4899,0.4865,0.4842,0.4867,0.4813,0.4811,0.4825,0.4799,0.4804,0.4774,0.4805,0.4804,0.4804,0,0.5332,0.5293,0.5232,0.5181,0.5164,0.5134,0.5087,0.5052,0.5008,0.499,0.4956,0.4935,0.4892,0.4896,0.4836,0.4853,0.483,0.481,0.4808,0.48,0.4806,0.4791,0.4763,0.4759,0.4796,0.4796,0.4797,0,0.533,0.5261,0.5216,0.5195,0.5134,0.5113,0.5087,0.5043,0.5016,0.4975,0.4956,0.491,0.4885,0.4849,0.4815,0.4822,0.4758,0.476,0.4741,0.4742,0.4728,0.4729,0.4695,0.4714,0.4714,0.4714,0.4714,0,0.53,0.5263,0.5214,0.5187,0.5145,0.5111,0.5071,0.5043,0.5004,0.497,0.4945,0.4913,0.4871,0.4834,0.4807,0.4761,0.475,0.4733,0.4727,0.4735,0.4737,0.4718,0.4719,0.4713,0.4713,0.4713,0.4714,0,0.529,0.5256,0.5205,0.5152,0.5138,0.511,0.5064,0.5036,0.5008,0.4964,0.4952,0.4907,0.4862,0.4826,0.4766,0.4748,0.47,0.4692,0.4715,0.4711,0.4695,0.4697,0.4647,0.4638,0.4664,0.4663,0.4663,0,0.5272,0.5244,0.5189,0.5164,0.5139,0.51,0.5072,0.5038,0.501,0.4957,0.4935,0.4889,0.4849,0.4778,0.4739,0.4694,0.4685,0.467,0.4677,0.4687,0.4684,0.4686,0.4683,0.4669,0.4669,0.4669,0.4669,0,0.5244,0.5229,0.5191,0.5146,0.5114,0.5077,0.504,0.5021,0.498,0.495,0.4904,0.4873,0.4813,0.4767,0.4717,0.4689,0.4672,0.4668,0.4661,0.4669,0.4683,0.4675,0.4712,0.4669,0.4669,0.4669,0.4669,0.4669,0.5229,0.5203,0.516,0.5118,0.5087,0.5053,0.5024,0.4992,0.4954,0.4903,0.4885,0.4837,0.4794,0.4726,0.4697,0.4659,0.4658,0.4648,0.4645,0.4643,0.4644,0.469,0.465,0.465,0.465,0.465,0.465,0,0.52,0.5172,0.5133,0.5082,0.5049,0.5038,0.4996,0.4968,0.4927,0.4889,0.4851,0.4798,0.4753,0.4712,0.4665,0.4643,0.4634,0.4631,0.4632,0.4626,0.4648,0.4659,0.4639,0.4639,0.4639,0.4639,0.4639,0.4639,0.5181,0.5136,0.5116,0.5055,0.5026,0.498,0.4957,0.4925,0.4894,0.4837,0.48,0.4774,0.4734,0.4684,0.4642,0.4631,0.4615,0.4614,0.4601,0.4623,0.4624,0.4626,0.4635,0.4611,0.4611,0.4582,0.4581,0.4581]},{"header":{"parameterUnit":"m.s-1","parameterCategory":1,"la1":30.2991,"la2":30.254,"lo1":-89.0895,"lo2":-89.0444,"dy":0.0017,"dx":0.0017,"nx":28,"ny":28,"refTime":"2024-08-19T03:00:00:Z","depth":0,"parameterNumber":3,"parameterNumberName":"V-component_of_WINDS"},"data":[0,0,0,0,0,0,0,0,0,0,0,0,0,0,0,0,0,0,0,0,0,0,0,0,0,0,0,0,0,0,0,0,0,0,0,0,0,0,0,0,0,0,0,0,0,0,0,0,0,0,0,0,0,0,0,0,0,0,-3.6438,-3.6438,0,-3.6399,-3.6399,-3.6398,-3.6325,-3.6323,-3.6322,-3.632,-3.6282,-3.6282,-3.6282,0,0,0,0,0,0,0,0,0,0,0,0,0,-3.645,-3.645,-3.6438,-3.6438,-3.6437,-3.6399,-3.6399,-3.6398,-3.6325,-3.6323,-3.6321,-3.632,-3.6282,-3.6282,-3.6282,0,0,0,0,0,0,0,0,0,0,0,0,0,-3.6431,-3.645,-3.6438,-3.6396,-3.6392,-3.6399,-3.6399,-3.6398,-3.6325,-3.6323,-3.6321,-3.6319,-3.6282,-3.6282,-3.6282,-3.6328,0,0,-3.6284,-3.6284,0,0,0,0,0,0,0,0,-3.6432,-3.6431,-3.6403,-3.6399,-3.6394,-3.6365,-3.6389,-3.6375,-3.6326,-3.6351,-3.632,-3.6318,-3.6311,-3.6309,-3.6306,-3.6327,-3.6325,-3.6284,-3.6284,-3.6284,-3.6285,0,0,0,0,0,0,0,-3.6434,-3.6432,-3.6423,-3.6402,-3.6397,-3.6379,-3.6374,-3.6386,-3.6343,-3.6348,-3.6343,-3.6339,-3.6308,-3.6306,-3.6305,-3.6324,-3.6284,-3.6284,-3.6285,-3.6285,-3.638,-3.6382,0,0,0,0,0,0,-3.6441,-3.6434,-3.6424,-3.6422,-3.6408,-3.6381,-3.6375,-3.6376,-3.6343,-3.6336,-3.6341,-3.6336,-3.6306,-3.6305,-3.6303,-3.6354,-3.6284,-3.6285,-3.6285,-3.6377,-3.638,-3.6382,0,0,0,0,0,0,-3.6442,-3.6441,-3.6426,-3.6426,-3.6423,-3.6383,-3.6385,-3.6377,-3.6374,-3.6338,-3.633,-3.6346,-3.6305,-3.6303,-3.6322,-3.6352,-3.6285,-3.6285,-3.6375,-3.6378,-3.6381,-3.6457,0,0,0,0,0,0,-3.6442,-3.6442,-3.6459,-3.6427,-3.6423,-3.6445,-3.6387,-3.6377,-3.6375,-3.6368,-3.6341,-3.6334,-3.6303,-3.6322,-3.6323,-3.6351,-3.6286,-3.6372,-3.6376,-3.638,-3.6452,-3.6463,-3.6472,0,0,0,0,0,-3.6443,-3.6482,-3.646,-3.6459,-3.6443,-3.6447,-3.6445,-3.6408,-3.6378,-3.6395,-3.6371,-3.6335,-3.6349,-3.6325,-3.6325,-3.6354,-3.637,-3.6375,-3.638,-3.6447,-3.6461,-3.6472,0,0,0,0,0,0,-3.6518,-3.6477,-3.6452,-3.6482,-3.6469,-3.6435,-3.6455,-3.6423,-3.6419,-3.6412,-3.6367,-3.6361,-3.6387,-3.6372,-3.6346,-3.6396,-3.6354,-3.6359,-3.6405,-3.6417,-3.6427,-3.643,-3.6286,0,0,0,0,0,-3.6538,-3.6545,-3.6508,-3.6538,-3.6533,-3.6495,-3.6496,-3.6468,-3.6453,-3.6447,-3.6424,-3.6411,-3.6412,-3.6414,-3.6413,-3.645,-3.6442,-3.647,-3.648,-3.6488,-3.6493,-3.6511,-3.6522,-3.6399,-3.6399,-3.6399,0,0,-3.658,-3.6558,-3.6565,-3.6553,-3.6539,-3.6547,-3.6491,-3.6502,-3.6507,-3.6448,-3.6465,-3.6449,-3.6431,-3.6459,-3.647,-3.6448,-3.6526,-3.6495,-3.6502,-3.6502,-3.6517,-3.6529,-3.6539,-3.6402,-3.6402,-3.6401,0,0,-3.6659,-3.6644,-3.6666,-3.6654,-3.6634,-3.6609,-3.6614,-3.6585,-3.6572,-3.6588,-3.6544,-3.655,-3.6553,-3.6542,-3.6536,-3.6611,-3.6578,-3.6612,-3.6665,-3.6682,-3.6692,-3.67,-3.6726,-3.6736,-3.6618,-3.6618,-3.6618,0,-3.6714,-3.6723,-3.6682,-3.6695,-3.6691,-3.6638,-3.6661,-3.6651,-3.6632,-3.6631,-3.6606,-3.6608,-3.6592,-3.6617,-3.6635,-3.6633,-3.6637,-3.6615,-3.6694,-3.6702,-3.6709,-3.6733,-3.6743,-3.6622,-3.6622,-3.6621,-3.6621,0,-3.679,-3.6798,-3.6819,-3.6801,-3.6799,-3.6817,-3.6779,-3.6782,-3.6755,-3.6733,-3.675,-3.6729,-3.6722,-3.6726,-3.67,-3.6747,-3.6733,-3.6702,-3.6658,-3.6726,-3.6748,-3.6757,-3.6628,-3.6627,-3.6625,-3.6624,0,0,-3.6916,-3.6875,-3.6884,-3.6875,-3.6849,-3.6854,-3.6869,-3.6862,-3.6866,-3.6855,-3.6866,-3.687,-3.684,-3.6834,-3.6806,-3.6822,-3.6882,-3.6788,-3.6787,-3.6806,-3.6931,-3.6954,-3.6966,-3.6859,-3.6861,-3.6862,-3.6932,0,-3.6989,-3.7013,-3.6977,-3.7009,-3.7015,-3.6965,-3.6978,-3.6964,-3.6943,-3.6945,-3.6922,-3.6925,-3.6886,-3.6882,-3.6895,-3.6872,-3.6906,-3.6866,-3.6869,-3.687,-3.6875,-3.6977,-3.7002,-3.7069,-3.694,-3.6942,-3.6943,0,-3.7078,-3.707,-3.7103,-3.7074,-3.7075,-3.7088,-3.7078,-3.7081,-3.7064,-3.7047,-3.7041,-3.7007,-3.702,-3.6978,-3.6995,-3.6969,-3.6968,-3.6957,-3.6958,-3.6957,-3.691,-3.6977,-3.7089,-3.7099,-3.6956,-3.6955,-3.6954,0,-3.7165,-3.7163,-3.7182,-3.7176,-3.7144,-3.7154,-3.714,-3.7121,-3.7119,-3.7111,-3.7109,-3.7103,-3.7099,-3.7095,-3.7061,-3.7034,-3.7082,-3.7037,-3.7068,-3.7069,-3.708,-3.708,-3.7193,-3.7082,-3.7081,-3.7081,-3.7081,0,-3.725,-3.7272,-3.7221,-3.7233,-3.7255,-3.7214,-3.7237,-3.7219,-3.7202,-3.7209,-3.7166,-3.7174,-3.7128,-3.7131,-3.7104,-3.7122,-3.7121,-3.7108,-3.71,-3.7111,-3.7113,-3.7109,-3.7104,-3.7084,-3.7083,-3.7083,-3.7082,0,-3.7352,-3.7318,-3.7336,-3.7303,-3.7295,-3.7314,-3.7286,-3.7295,-3.7271,-3.7281,-3.7281,-3.7244,-3.7245,-3.721,-3.7204,-3.7186,-3.7215,-3.72,-3.7221,-3.7216,-3.7249,-3.7246,-3.7362,-3.7375,-3.7257,-3.7258,-3.7259,0,-3.7408,-3.7423,-3.7392,-3.7394,-3.7383,-3.7386,-3.7383,-3.7343,-3.7342,-3.7323,-3.7335,-3.7332,-3.7327,-3.7331,-3.7304,-3.7299,-3.7282,-3.7323,-3.7281,-3.7291,-3.7281,-3.7281,-3.7282,-3.7332,-3.7334,-3.7335,-3.7336,0,-3.7511,-3.7494,-3.7492,-3.7484,-3.7482,-3.7474,-3.7464,-3.7467,-3.7423,-3.7425,-3.7425,-3.7421,-3.7415,-3.7412,-3.7402,-3.7388,-3.7355,-3.7349,-3.7356,-3.7367,-3.7378,-3.7372,-3.7244,-3.7347,-3.7346,-3.7345,-3.7344,-3.7344,-3.7591,-3.7602,-3.7581,-3.7581,-3.7568,-3.7559,-3.7566,-3.7543,-3.7542,-3.7533,-3.751,-3.7514,-3.7495,-3.7478,-3.7467,-3.7469,-3.7448,-3.7459,-3.7461,-3.7464,-3.747,-3.7379,-3.7467,-3.7467,-3.7466,-3.7466,-3.7466,0,-3.7691,-3.7675,-3.7675,-3.7661,-3.766,-3.7629,-3.7615,-3.7616,-3.762,-3.7606,-3.7602,-3.7602,-3.7599,-3.7571,-3.7565,-3.7572,-3.7556,-3.7571,-3.757,-3.7567,-3.7489,-3.7483,-3.7584,-3.7584,-3.7584,-3.7584,-3.7584,-3.7584,-3.7743,-3.776,-3.774,-3.775,-3.7734,-3.7737,-3.7732,-3.7723,-3.7711,-3.7712,-3.771,-3.7691,-3.7671,-3.7663,-3.7659,-3.7651,-3.765,-3.767,-3.7657,-3.7584,-3.7573,-3.7562,-3.7556,-3.7671,-3.7671,-3.7735,-3.7735,-3.7736]}]]